CAPE
0 109 313 357 252 278 294 273 207 45 74 78 87 252 409 539 448 393 459 509 525 497 402 284 250 230 290 336 317 241 258 402 349 56 16 68 105 64 45 12 0 8 97
0 59 338 439 201 142 187 43 27 42 4 224 302 303 532 482 334 226 196 223 256 240 225 189 136 122 125 126 192 352 455 319 482 366 120 19 171 39 31 1 0 0 10
0 56 240 284 55 69 142 312 262 207 295 313 259 408 526 338 212 163 133 151 137 137 133 104 104 76 14 0 0 27 164 631 557 517 604 152 73 89 0 0 0 0 0
0 0 20 101 24 221 135 202 388 254 340 293 297 476 480 325 243 222 262 278 194 153 118 69 20 0 0 0 0 0 3 76 484 720 703 611 360 325 70 22 29 0 0
0 0 13 43 20 121 105 317 384 365 332 364 511 551 370 221 108 87 123 137 118 116 43 0 0 0 0 0 0 0 0 0 24 213 906 797 394 534 251 226 372 296 8
0 0 65 42 7 116 264 421 439 295 247 418 530 395 276 167 104 58 40 30 5 0 0 0 0 0 0 0 0 25 89 172 294 358 448 968 435 633 614 548 576 156 41
10 20 30 10 49 197 464 504 565 432 392 536 505 330 210 88 46 0 0 0 0 47 109 179 202 210 159 135 95 132 272 457 807 742 699 1034 473 658 738 817 577 125 178
0 42 13 113 121 325 320 486 541 713 581 569 417 239 90 36 0 0 0 0 54 193 329 395 414 383 361 336 356 425 530 603 538 703 1015 753 444 638 661 527 340 194 246
0 31 69 152 164 356 360 415 428 514 539 568 346 113 46 0 0 0 39 170 211 239 330 352 348 311 339 398 398 452 807 536 0 323 1075 473 610 766 713 603 588 548 437
0 6 9 126 344 336 410 481 457 548 416 234 86 0 0 0 0 33 218 173 131 81 104 102 89 73 79 90 89 137 646 1039 459 17 653 671 814 1051 934 904 923 789 689
0 0 11 32 77 142 243 529 414 407 241 77 0 0 0 0 0 152 404 495 151 92 90 110 131 246 281 350 502 619 491 765 440 250 1056 848 913 1120 1072 1014 1262 1235 1154
0 2 0 0 0 0 55 146 103 140 51 0 0 0 0 0 0 484 698 566 201 187 279 454 464 638 760 625 404 566 728 499 762 956 1058 930 1017 1287 1201 998 1175 1461 1437
0 0 0 0 0 0 51 0 0 0 0 0 28 230 491 433 214 661 764 255 419 458 452 737 668 828 473 326 228 333 338 351 650 891 866 1131 1202 1433 1357 1205 1251 1330 1481
0 0 0 0 0 4 132 0 2 56 0 91 148 478 255 27 7 75 494 210 850 973 807 334 288 315 335 346 355 544 620 618 725 1263 1806 1739 1783 1919 1867 1831 1793 1878 1824
0 0 13 0 5 109 187 0 0 61 112 204 452 192 426 754 1073 982 745 648 204 104 67 76 69 126 251 273 270 584 442 502 605 1435 1055 1005 986 1118 1516 1940 2017 1803 1915
0 0 30 0 11 140 143 26 99 88 245 245 167 89 94 303 537 398 265 12 0 0 0 0 0 0 12 54 41 9 78 95 997 861 267 288 502 714 691 871 1260 2022 2163
0 0 70 23 5 58 426 125 44 11 117 2 0 0 0 0 2 2 1 0 0 0 0 0 0 0 0 0 0 0 0 229 880 665 63 0 4 64 129 342 609 1026 1418
0 4 17 18 34 329 542 340 57 78 17 0 0 0 0 0 0 0 0 0 0 0 0 0 0 0 0 0 0 0 0 377 141 0 0 0 0 0 0 0 265 572 615
7 0 181 274 176 591 424 158 35 3 0 0 0 0 0 0 0 0 0 0 0 0 0 0 0 0 0 0 0 0 0 264 29 0 0 0 0 0 0 0 1 9 6
89 82 411 523 359 328 144 4 9 0 0 0 0 0 0 0 0 0 0 0 0 0 0 0 0 0 0 0 0 0 99 135 0 0 0 0 0 0 0 0 0 0 0
156 186 196 284 182 188 53 0 0 0 0 0 0 0 0 0 0 0 0 0 0 0 0 0 0 0 0 0 0 0 21 0 0 0 0 0 0 0 0 0 0 0 0
200 184 118 131 108 56 11 1 0 0 0 0 0 0 0 0 0 0 0 0 0 0 0 0 0 0 0 0 0 0 26 0 0 0 0 0 0 0 0 0 0 0 0
267 228 151 96 67 36 10 0 0 0 0 0 0 0 0 0 0 0 0 0 0 0 0 0 0 0 0 0 0 0 1 2 0 0 0 0 0 0 0 0 0 0 0
149 125 97 45 24 2 0 0 0 0 0 0 0 0 0 0 0 0 0 0 0 0 0 0 0 0 0 0 0 0 0 0 0 0 0 0 0 0 0 0 0 0 0
10 65 17 8 0 0 0 0 0 0 0 0 0 0 0 0 0 0 0 0 0 0 0 0 0 0 0 0 0 0 0 0 0 0 0 0 0 0 0 0 0 0 0
0 0 1 0 0 0 0 0 0 0 0 0 0 0 0 0 0 0 0 0 0 0 0 0 0 0 0 0 0 0 0 0 0 0 0 0 0 0 0 0 0 0 0
CIN
-0 -201 -120 -78 -76 -39 -19 -7 -23 -98 -76 -84 -85 -32 -13 -13 -24 -30 -28 -26 -32 -44 -54 -84 -95 -105 -88 -85 -102 -103 -110 -74 -75 -134 -140 -116 -94 -113 -134 -195 -0 -74 -109
-0 -261 -130 -67 -92 -96 -41 -69 -66 -81 -12 -30 -19 -22 -11 -20 -31 -56 -67 -51 -62 -78 -80 -108 -99 -113 -134 -114 -128 -86 -77 -88 -69 -66 -86 -181 -78 -134 -145 -26 -0 -0 -86
-0 -274 -171 -120 -165 -133 -59 -6 -10 -22 -16 -14 -19 -12 -12 -33 -56 -87 -100 -86 -109 -112 -119 -106 -114 -118 -64 -0 -0 -137 -110 -68 -57 -44 -42 -94 -135 -103 -0 -0 -0 -0 -0
-0 -0 -279 -191 -210 -72 -63 -17 -3 -16 -13 -23 -27 -17 -23 -42 -56 -60 -55 -58 -92 -101 -98 -122 -74 -0 -0 -0 -0 -0 -48 -136 -74 -38 -36 -43 -53 -71 -96 -141 -136 -0 -0
-0 -0 -210 -242 -113 -122 -89 -11 -9 -14 -18 -24 -17 -21 -40 -69 -120 -105 -107 -112 -129 -117 -94 -0 -0 -0 -0 -0 -0 -0 -0 -0 -167 -110 -28 -35 -51 -72 -82 -84 -63 -66 -137
-0 -0 -248 -249 -119 -122 -50 -16 -14 -39 -41 -25 -26 -49 -66 -99 -150 -117 -132 -138 -29 -0 -0 -0 -0 -0 -0 -0 -0 -172 -158 -138 -104 -93 -70 -58 -74 -85 -75 -75 -57 -93 -128
-413 -334 -273 -256 -211 -101 -26 -24 -15 -38 -42 -34 -43 -71 -96 -129 -134 -0 -0 -0 -0 -146 -142 -130 -130 -139 -142 -140 -135 -126 -115 -106 -68 -51 -45 -72 -100 -106 -90 -71 -70 -137 -109
-0 -317 -156 -215 -190 -99 -70 -41 -33 -16 -36 -45 -70 -99 -124 -149 -0 -0 -0 -0 -144 -122 -114 -119 -120 -126 -125 -131 -124 -108 -125 -105 -116 -64 -56 -95 -135 -140 -122 -116 -134 -150 -122
-0 -349 -279 -204 -175 -100 -92 -78 -68 -57 -58 -53 -80 -140 -136 -0 -0 -0 -111 -113 -115 -121 -121 -121 -130 -128 -127 -128 -136 -134 -138 -93 -0 -119 -70 -131 -144 -142 -143 -142 -122 -107 -110
-0 -383 -333 -220 -141 -130 -110 -81 -85 -76 -100 -123 -158 -0 -0 -0 -0 -146 -105 -106 -112 -121 -115 -126 -132 -136 -143 -127 -124 -138 -146 -143 -87 -6 -140 -135 -145 -133 -146 -134 -110 -100 -91
-0 -0 -360 -301 -237 -206 -157 -88 -112 -107 -125 -161 -0 -0 -0 -0 -0 -119 -94 -88 -109 -112 -109 -109 -108 -107 -106 -87 -66 -67 -74 -89 -131 -136 -100 -89 -133 -122 -128 -131 -93 -71 -56
-0 -119 -0 -0 -0 -0 -227 -203 -214 -181 -197 -0 -0 -0 -0 -0 -0 -69 -65 -65 -71 -81 -77 -57 -57 -64 -66 -85 -88 -53 -56 -60 -76 -77 -74 -105 -99 -88 -101 -109 -105 -63 -46
-0 -0 -0 -0 -0 -0 -228 -0 -0 -0 -0 -0 -110 -96 -75 -65 -80 -46 -53 -58 -42 -71 -57 -35 -43 -60 -76 -92 -87 -102 -75 -57 -43 -39 -65 -67 -79 -67 -73 -91 -90 -75 -48
-0 -0 -0 -0 -0 -23 -157 -0 -15 -199 -0 -158 -148 -68 -38 -100 -7 -51 -30 -50 -28 -50 -57 -101 -129 -120 -104 -82 -100 -84 -80 -74 -70 -70 -61 -60 -48 -27 -36 -48 -46 -40 -34
-0 -0 -324 -0 -114 -181 -123 -0 -0 -123 -131 -108 -62 -92 -83 -63 -32 -42 -27 -37 -118 -162 -194 -202 -240 -193 -161 -147 -156 -127 -133 -91 -82 -100 -131 -144 -161 -123 -49 -7 -11 -27 -23
-0 -0 -354 -0 -149 -160 -138 -163 -109 -98 -99 -146 -180 -182 -191 -161 -100 -95 -120 -68 -0 -0 -0 -0 -0 -0 -106 -309 -331 -109 -253 -221 -127 -184 -350 -348 -269 -195 -184 -111 -41 -0 -1
-0 -0 -314 -278 -152 -194 -99 -114 -165 -131 -191 -19 -7 -0 -0 -0 -16 -17 -15 -0 -0 -0 -0 -0 -0 -0 -0 -0 -0 -0 -0 -248 -134 -201 -457 -0 -70 -438 -391 -241 -103 -31 -1
-0 -175 -370 -327 -287 -122 -91 -107 -202 -207 -307 -0 -0 -0 -0 -0 -0 -0 -0 -0 -0 -0 -0 -0 -0 -0 -0 -0 -0 -0 -0 -243 -306 -0 -0 -0 -0 -0 -0 -0 -176 -65 -68
-279 -0 -251 -240 -199 -89 -91 -195 -285 -193 -0 -0 -0 -0 -0 -0 -0 -0 -0 -0 -0 -0 -0 -0 -0 -0 -0 -0 -0 -0 -0 -271 -422 -0 -0 -0 -0 -0 -0 -0 -0 -88 -0
-319 -286 -196 -199 -185 -150 -164 -146 -305 -0 -0 -0 -0 -0 -0 -0 -0 -0 -0 -0 -0 -0 -0 -0 -0 -0 -0 -0 -0 -0 -294 -279 -0 -0 -0 -0 -0 -0 -0 -0 -0 -0 -0
-336 -248 -252 -269 -247 -189 -238 -0 -0 -0 -0 -0 -0 -0 -0 -0 -0 -0 -0 -0 -0 -0 -0 -0 -0 -0 -0 -0 -0 -0 -338 -110 -0 -0 -0 -0 -0 -0 -0 -0 -0 -0 -0
-319 -293 -299 -278 -311 -253 -263 -45 -0 -0 -0 -0 -0 -0 -0 -0 -0 -0 -0 -0 -0 -0 -0 -0 -0 -0 -0 -0 -0 -0 -242 -0 -0 -0 -0 -0 -0 -0 -0 -0 -0 -0 -0
-274 -263 -288 -273 -281 -283 -270 -0 -0 -0 -0 -0 -0 -0 -0 -0 -0 -0 -0 -0 -0 -0 -0 -0 -0 -0 -0 -0 -0 -0 -60 -25 -0 -0 -0 -0 -0 -0 -0 -0 -0 -0 -0
-213 -190 -204 -219 -236 -54 -0 -0 -0 -0 -0 -0 -0 -0 -0 -0 -0 -0 -0 -0 -0 -0 -0 -0 -0 -0 -0 -0 -0 -0 -0 -0 -0 -0 -0 -0 -0 -0 -0 -0 -0 -0 -0
-223 -177 -223 -153 -0 -0 -0 -0 -0 -0 -0 -0 -0 -0 -0 -0 -0 -0 -0 -0 -0 -0 -0 -0 -0 -0 -0 -0 -0 -0 -0 -0 -0 -0 -0 -0 -0 -0 -0 -0 -0 -0 -0
-0 -0 -169 -0 -0 -0 -0 -0 -0 -0 -0 -0 -0 -0 -0 -0 -0 -0 -0 -0 -0 -0 -0 -0 -0 -0 -0 -0 -0 -0 -0 -0 -0 -0 -0 -0 -0 -0 -0 -0 -0 -0 -0
Wind_Speed
18 21 22 23 24 24 24 24 24 24 24 23 23 22 21 21 22 24 24 22 19 18 14 11 9 10 7 4 3 10 18 21 21 21 20 22 23 22 24 24 23 22 20
22 22 22 23 24 24 24 24 24 23 23 22 22 21 20 20 20 20 21 21 21 18 16 14 12 8 4 6 8 12 22 25 25 25 26 24 23 22 23 24 25 24 22
20 21 22 23 23 24 25 24 23 22 21 20 20 18 17 17 17 19 21 21 18 19 20 20 16 11 5 16 13 10 7 20 22 23 23 25 25 24 23 23 24 24 23
20 20 22 23 24 24 25 25 24 22 20 19 17 16 16 16 17 18 18 19 20 18 18 20 20 23 18 18 16 16 22 20 23 21 21 21 24 24 23 23 23 23 23
18 19 21 23 24 26 25 24 24 22 19 17 16 14 14 14 16 18 19 20 21 20 20 21 23 15 15 13 15 15 17 18 18 18 19 21 22 23 24 23 23 23 23
18 18 20 23 23 23 23 23 23 22 19 17 16 15 14 14 15 18 20 21 22 19 19 18 17 16 15 13 14 14 13 11 11 15 17 21 22 23 23 23 23 23 22
18 18 19 22 22 22 21 21 21 21 20 17 15 14 14 16 18 19 20 20 20 17 16 15 14 14 15 14 14 14 11 11 11 8 21 23 22 23 23 23 22 22 22
18 18 19 20 22 21 20 19 17 18 18 18 17 16 17 18 19 19 19 19 16 15 15 15 15 15 15 15 14 13 13 11 16 13 21 21 22 22 22 22 22 21 21
19 18 18 19 20 19 17 17 16 15 15 16 16 17 18 18 18 18 18 18 17 16 15 15 16 16 15 13 12 12 12 12 17 17 9 18 20 20 21 21 20 20 20
16 17 18 18 19 19 18 18 16 15 14 15 15 17 17 17 17 17 17 17 17 17 18 16 16 14 14 13 12 11 11 18 17 16 16 16 17 17 19 19 19 19 18
17 18 19 20 22 22 19 19 18 18 17 16 17 18 18 17 16 16 16 16 15 16 15 15 14 14 15 15 14 12 13 19 15 14 14 14 15 15 16 17 16 16 16
20 20 20 21 22 21 20 19 18 18 18 18 19 20 18 15 14 15 14 14 14 14 14 15 15 18 17 17 17 18 21 20 11 14 16 15 14 14 15 15 14 14 14
17 19 20 20 20 19 18 17 16 17 18 18 18 19 15 10 11 15 10 9 11 11 12 16 19 17 17 19 21 22 19 20 20 15 15 15 15 15 15 14 13 11 10
16 18 16 18 17 16 16 15 16 16 17 16 15 12 9 16 17 18 9 10 13 13 12 15 16 17 19 21 21 21 20 20 20 15 16 17 18 19 19 19 16 12 9
15 14 14 13 13 10 13 14 14 14 13 15 10 8 9 12 13 12 11 12 12 14 16 18 19 20 21 21 21 21 19 20 19 14 16 17 18 20 22 22 21 17 13
16 14 15 10 12 4 9 10 9 10 11 8 7 8 10 12 13 14 13 13 16 18 19 19 20 21 21 21 20 20 20 20 14 14 15 18 19 20 21 22 22 22 19
13 11 14 13 10 6 4 4 6 6 7 6 7 9 11 12 13 16 12 14 16 19 19 20 21 22 21 22 21 20 19 16 13 14 15 17 19 20 21 22 22 20 20
10 11 11 8 5 4 3 3 3 4 4 5 6 9 11 12 13 13 12 14 16 18 18 20 22 22 22 22 23 22 19 12 13 15 16 18 19 20 21 20 19 19 18
7 7 4 7 5 5 2 1 2 3 5 6 7 10 11 12 12 12 12 15 15 16 18 20 21 22 22 23 21 21 18 11 12 14 17 19 18 18 18 19 18 17 18
6 6 3 5 5 4 1 1 1 2 4 6 8 9 12 13 14 13 13 14 15 17 19 21 20 21 20 24 22 16 12 11 12 14 16 17 16 18 17 17 17 17 17
8 7 5 5 5 5 3 2 2 2 4 7 9 11 14 14 15 14 14 17 17 18 20 22 19 18 21 24 17 15 13 12 12 13 15 16 16 17 18 17 15 15 17
11 9 7 6 4 5 4 5 4 5 8 8 11 13 15 16 17 17 17 18 17 19 20 21 20 18 19 20 16 15 13 15 15 16 16 15 16 15 17 16 17 14 15
13 11 9 8 6 5 6 6 6 6 9 12 12 13 14 15 16 16 17 17 17 18 18 19 20 18 17 18 17 15 16 18 15 18 18 15 15 14 15 14 16 16 15
14 12 11 9 9 8 7 7 7 9 11 13 10 12 14 14 15 15 15 16 17 17 17 17 18 17 14 16 15 15 15 16 18 18 19 16 15 14 14 15 15 16 17
16 14 12 11 10 8 9 8 9 11 11 8 8 10 12 13 13 14 15 15 15 16 17 16 17 17 17 17 18 16 15 18 17 15 20 20 18 18 16 14 14 16 19
15 13 10 10 10 11 12 9 9 8 8 8 10 12 11 12 13 14 15 16 15 16 16 16 16 16 16 17 17 17 16 16 18 17 18 19 18 20 14 15 15 18 21
Wind_Direction
82 88 83 81 81 80 78 79 76 74 73 69 69 64 61 59 59 59 58 51 44 39 26 16 5 4 352 329 233 153 20 33 31 33 29 35 42 35 63 45 46 42 39
99 91 87 86 85 84 82 81 80 76 75 71 70 66 61 57 54 53 51 49 46 36 28 16 5 349 301 192 182 162 100 76 93 73 59 46 38 32 45 51 53 49 42
94 93 90 89 88 88 89 87 82 79 74 72 69 64 58 52 48 48 50 49 37 38 37 35 15 349 193 136 156 171 171 122 104 96 97 62 54 49 46 50 53 53 51
97 94 92 93 92 92 93 89 86 81 75 72 68 64 57 50 47 43 42 42 44 32 28 32 30 54 130 126 139 142 110 119 93 106 108 101 64 56 49 53 56 57 55
96 95 95 95 96 99 96 92 88 82 77 72 67 60 52 46 45 47 46 46 52 46 39 39 92 141 141 154 150 147 135 125 115 117 117 103 62 69 61 64 63 69 62
98 96 96 99 98 98 95 91 90 87 81 75 70 63 54 46 41 47 58 63 87 128 124 125 134 142 146 159 161 160 150 161 162 132 128 105 81 83 72 73 74 63 68
102 100 99 101 101 101 95 91 90 90 87 80 72 63 57 59 64 67 74 90 111 148 152 157 163 155 154 165 165 159 171 163 162 225 106 98 96 94 85 81 80 74 74
107 106 103 104 105 103 97 90 85 87 87 86 85 77 79 79 85 87 82 84 147 168 171 171 163 158 156 158 163 168 149 184 339 348 92 104 98 91 89 88 84 82 79
110 110 107 107 108 104 97 92 87 83 81 84 87 88 96 96 98 96 98 106 125 152 170 166 160 160 174 181 187 183 160 165 0 5 62 111 97 90 85 87 85 88 86
110 114 112 110 108 107 104 103 95 88 86 89 94 104 106 110 112 106 104 101 105 116 114 158 161 194 192 184 185 204 254 29 20 73 139 121 104 91 80 81 85 86 88
113 121 120 121 120 118 113 114 109 109 105 102 110 121 119 123 112 120 120 123 118 101 154 198 232 261 254 245 236 215 243 19 44 102 153 115 110 85 75 75 81 86 90
123 128 128 128 128 124 121 120 120 120 123 124 130 138 130 129 124 130 124 119 119 92 135 194 227 274 257 253 267 285 330 12 119 64 87 116 91 70 67 66 75 85 91
129 130 133 132 132 127 117 120 122 128 130 131 135 143 123 54 108 146 109 85 109 53 111 205 290 308 314 315 305 311 347 8 24 56 67 64 31 32 43 50 53 70 93
133 135 132 135 131 128 118 116 128 127 131 131 130 113 75 290 275 293 13 101 350 351 10 350 355 340 328 310 310 321 334 342 349 26 23 16 9 0 356 357 10 28 50
141 135 132 135 131 109 127 122 125 132 129 134 98 48 22 328 344 342 355 357 347 336 327 328 326 327 325 314 309 324 337 338 349 15 13 7 1 357 352 353 351 356 4
145 143 137 140 138 78 114 112 68 93 89 67 50 19 0 342 330 336 351 336 327 322 318 322 324 320 319 319 321 326 331 331 6 16 13 2 1 359 357 352 350 351 353
147 141 137 139 140 115 70 64 73 71 69 46 24 359 345 335 331 322 352 343 338 321 323 322 318 315 318 315 316 322 332 350 3 1 357 359 357 356 354 351 349 356 2
144 138 134 138 142 146 107 51 42 46 39 18 4 350 343 337 341 349 350 342 341 331 332 328 324 321 323 318 313 316 326 355 357 354 353 348 347 347 349 353 354 358 4
161 158 146 134 138 141 133 6 29 35 26 8 359 341 343 338 339 348 349 343 339 337 332 328 326 324 323 320 322 318 323 348 352 356 352 349 353 352 355 355 352 358 357
187 198 183 150 149 152 129 96 22 29 4 1 348 341 338 333 332 337 341 338 337 333 329 327 325 323 323 318 315 326 336 345 350 351 351 355 1 357 2 4 358 358 1
207 219 215 180 178 181 189 195 197 269 310 327 329 325 324 325 326 330 333 331 330 330 329 325 323 323 321 320 320 318 335 341 346 349 350 352 355 357 358 4 358 355 353
214 217 220 218 206 211 220 282 272 284 301 308 313 320 319 316 317 321 326 327 328 328 327 325 322 320 322 325 318 312 312 323 331 336 342 348 343 347 349 356 354 355 358
226 218 220 223 222 234 256 281 288 297 303 303 312 317 318 322 321 326 329 333 338 336 334 331 327 325 322 327 328 310 304 305 312 324 334 345 349 354 342 346 349 351 347
234 227 235 234 244 261 257 267 263 273 285 299 311 319 319 323 327 332 335 337 339 340 338 337 337 336 335 327 325 330 331 318 306 309 328 340 341 343 340 339 345 349 347
230 240 238 240 250 260 268 263 276 286 294 302 316 320 321 327 333 337 339 343 344 343 341 337 336 337 339 332 327 320 321 324 323 309 314 322 330 333 333 341 343 345 341
218 232 230 240 256 270 285 275 277 279 286 297 306 309 316 324 332 334 336 337 340 341 342 342 339 338 340 340 336 335 330 319 320 317 317 320 321 325 336 343 343 339 337